[[{"header":{"parameterUnit":"m.s-1","parameterCategory":1,"la1":30.2991,"la2":30.254,"lo1":-89.0895,"lo2":-89.0444,"dy":0.0017,"dx":0.0017,"nx":28,"ny":28,"refTime":"2024-04-25T09:00:00:Z","depth":0,"parameterNumber":2,"parameterNumberName":"U-component_of_WINDS"},"data":[0,0,0,0,0,0,0,0,0,0,0,0,0,0,0,0,0,0,0,0,0,0,0,0,0,0,0,0,0,0,0,0,0,0,0,0,0,0,0,0,0,0,0,0,0,0,0,0,0,0,0,0,0,0,0,0,0,0,-1.8692,-1.8693,0,-1.8718,-1.8718,-1.8718,-1.8699,-1.8698,-1.8697,-1.8697,-1.8723,-1.8724,-1.8726,0,0,0,0,0,0,0,0,0,0,0,0,0,-1.8629,-1.863,-1.8692,-1.8693,-1.8693,-1.8718,-1.8718,-1.8718,-1.8699,-1.8698,-1.8697,-1.8696,-1.8722,-1.8724,-1.8726,0,0,0,0,0,0,0,0,0,0,0,0,0,-1.8655,-1.863,-1.8692,-1.8686,-1.8686,-1.8718,-1.8718,-1.8718,-1.87,-1.8698,-1.8697,-1.8696,-1.8722,-1.8724,-1.8726,-1.8765,0,0,-1.8733,-1.8734,0,0,0,0,0,0,0,0,-1.8654,-1.8658,-1.8687,-1.8687,-1.8687,-1.8704,-1.8705,-1.8734,-1.87,-1.8694,-1.8697,-1.8695,-1.8718,-1.872,-1.8728,-1.8766,-1.8767,-1.8733,-1.8734,-1.8735,-1.8736,0,0,0,0,0,0,0,-1.8652,-1.8657,-1.8702,-1.8687,-1.8687,-1.8683,-1.8685,-1.871,-1.8713,-1.8695,-1.8693,-1.8697,-1.8717,-1.8726,-1.8728,-1.8767,-1.8733,-1.8735,-1.8736,-1.8737,-1.884,-1.8841,0,0,0,0,0,0,-1.8651,-1.8655,-1.8702,-1.8703,-1.8667,-1.8685,-1.8688,-1.87,-1.8712,-1.8713,-1.8698,-1.8696,-1.8722,-1.8726,-1.8729,-1.8775,-1.8735,-1.8737,-1.8739,-1.8838,-1.884,-1.8842,0,0,0,0,0,0,-1.8649,-1.8655,-1.87,-1.8679,-1.8684,-1.8688,-1.8701,-1.8701,-1.8709,-1.8715,-1.8715,-1.8706,-1.8722,-1.8726,-1.8756,-1.8776,-1.8738,-1.874,-1.8837,-1.8839,-1.8841,-1.8868,0,0,0,0,0,0,-1.8648,-1.8655,-1.8669,-1.8679,-1.8686,-1.8727,-1.8702,-1.8702,-1.8713,-1.871,-1.8722,-1.8723,-1.8721,-1.8753,-1.8758,-1.8778,-1.8742,-1.8835,-1.8838,-1.884,-1.8866,-1.8871,-1.8876,0,0,0,0,0,-1.8645,-1.8676,-1.867,-1.8675,-1.8703,-1.8728,-1.8732,-1.8729,-1.8714,-1.8729,-1.8733,-1.8723,-1.8773,-1.8756,-1.8762,-1.8783,-1.8834,-1.8837,-1.884,-1.8863,-1.887,-1.8875,0,0,0,0,0,0,-1.8667,-1.8677,-1.867,-1.8705,-1.8716,-1.8725,-1.8743,-1.8736,-1.8751,-1.8748,-1.8744,-1.8747,-1.8779,-1.8784,-1.8765,-1.8822,-1.8801,-1.8806,-1.8817,-1.8823,-1.8828,-1.8826,-1.8744,0,0,0,0,0,-1.8676,-1.8695,-1.8702,-1.8732,-1.8738,-1.874,-1.875,-1.8747,-1.8759,-1.8763,-1.8769,-1.8781,-1.8799,-1.8812,-1.8829,-1.8867,-1.8869,-1.8884,-1.8889,-1.8893,-1.8897,-1.8918,-1.8925,-1.8852,-1.8852,-1.8852,0,0,-1.8694,-1.8702,-1.8714,-1.8737,-1.8745,-1.8765,-1.8744,-1.8766,-1.8781,-1.8767,-1.8796,-1.8801,-1.8813,-1.8848,-1.8863,-1.8853,-1.8918,-1.8897,-1.89,-1.8902,-1.8922,-1.8929,-1.8935,-1.8854,-1.8854,-1.8853,0,0,-1.8738,-1.8746,-1.8771,-1.878,-1.8793,-1.8794,-1.8801,-1.8811,-1.8814,-1.8843,-1.8833,-1.8851,-1.8883,-1.8893,-1.8902,-1.8951,-1.8942,-1.8957,-1.8983,-1.9003,-1.9009,-1.9014,-1.9032,-1.9038,-1.8961,-1.8961,-1.8961,0,-1.8759,-1.8789,-1.8785,-1.8809,-1.8819,-1.8807,-1.8834,-1.8843,-1.8861,-1.8868,-1.8857,-1.8897,-1.8905,-1.8942,-1.8954,-1.8962,-1.8969,-1.8955,-1.9009,-1.9014,-1.9018,-1.9035,-1.9042,-1.8963,-1.8962,-1.8962,-1.8962,0,-1.8815,-1.8836,-1.8855,-1.8873,-1.8885,-1.891,-1.8911,-1.8924,-1.892,-1.8923,-1.8953,-1.8963,-1.8982,-1.8991,-1.8987,-1.9027,-1.902,-1.9009,-1.8988,-1.9027,-1.9043,-1.9049,-1.8965,-1.8964,-1.8964,-1.8963,0,0,-1.8872,-1.8888,-1.8895,-1.8903,-1.8917,-1.8934,-1.8958,-1.8977,-1.8989,-1.9002,-1.9023,-1.9051,-1.9041,-1.9051,-1.9049,-1.9067,-1.9106,-1.9053,-1.9053,-1.9063,-1.9151,-1.9159,-1.9167,-1.91,-1.9101,-1.9102,-1.915,0,-1.8916,-1.8958,-1.8957,-1.8997,-1.9016,-1.9006,-1.9028,-1.9039,-1.9042,-1.906,-1.9064,-1.9084,-1.9069,-1.9075,-1.9092,-1.9097,-1.9123,-1.9094,-1.912,-1.912,-1.9116,-1.9175,-1.9184,-1.9228,-1.9156,-1.9157,-1.9158,0,-1.8973,-1.8989,-1.9031,-1.9042,-1.9051,-1.907,-1.9088,-1.9105,-1.9117,-1.9119,-1.9131,-1.9126,-1.9152,-1.9131,-1.9166,-1.9146,-1.9157,-1.9161,-1.9163,-1.9165,-1.9141,-1.9178,-1.9242,-1.9249,-1.9167,-1.9167,-1.9166,0,-1.9011,-1.9042,-1.9071,-1.9079,-1.9093,-1.9107,-1.9114,-1.9126,-1.9138,-1.9153,-1.9161,-1.918,-1.919,-1.9205,-1.9205,-1.919,-1.9241,-1.922,-1.9243,-1.9243,-1.9254,-1.9253,-1.932,-1.9261,-1.9261,-1.9261,-1.9261,0,-1.9061,-1.9087,-1.9089,-1.9107,-1.9136,-1.9134,-1.9163,-1.9169,-1.9179,-1.9199,-1.9191,-1.9209,-1.9209,-1.9228,-1.9228,-1.9258,-1.9262,-1.9264,-1.9264,-1.9265,-1.9265,-1.9272,-1.9268,-1.9263,-1.9262,-1.9262,-1.9262,0,-1.9107,-1.911,-1.9141,-1.9152,-1.9156,-1.9177,-1.9187,-1.9204,-1.9208,-1.9232,-1.9238,-1.9243,-1.9265,-1.9267,-1.9292,-1.9293,-1.9328,-1.9325,-1.9324,-1.9323,-1.9346,-1.9344,-1.942,-1.943,-1.9364,-1.9365,-1.9366,0,-1.9139,-1.9159,-1.9172,-1.9185,-1.9192,-1.9212,-1.9225,-1.9224,-1.9237,-1.9254,-1.927,-1.9291,-1.9307,-1.9343,-1.9349,-1.9369,-1.9366,-1.9391,-1.9368,-1.9369,-1.9366,-1.9365,-1.9367,-1.9395,-1.9396,-1.9396,-1.9397,0,-1.9194,-1.9195,-1.9213,-1.9231,-1.9246,-1.9261,-1.9274,-1.9285,-1.9286,-1.9301,-1.9324,-1.9337,-1.9363,-1.9384,-1.9404,-1.9411,-1.9404,-1.9404,-1.941,-1.9411,-1.941,-1.9411,-1.9336,-1.9402,-1.9402,-1.9401,-1.9401,-1.9401,-1.9235,-1.9252,-1.9265,-1.9285,-1.9295,-1.9308,-1.9325,-1.9331,-1.935,-1.9371,-1.9369,-1.9394,-1.9408,-1.9433,-1.9442,-1.9462,-1.9453,-1.9462,-1.9465,-1.9467,-1.9469,-1.9407,-1.9465,-1.9465,-1.9465,-1.9465,-1.9465,0,-1.929,-1.9298,-1.9316,-1.9336,-1.9352,-1.9345,-1.936,-1.9374,-1.9396,-1.9409,-1.9426,-1.9452,-1.9473,-1.9481,-1.9501,-1.9516,-1.9513,-1.9521,-1.952,-1.9522,-1.9476,-1.9468,-1.9523,-1.9523,-1.9523,-1.9523,-1.9523,-1.9523,-1.9321,-1.935,-1.9352,-1.9386,-1.9394,-1.9418,-1.9428,-1.944,-1.945,-1.948,-1.9497,-1.9502,-1.9514,-1.9535,-1.9554,-1.9556,-1.9564,-1.9573,-1.9574,-1.9531,-1.9525,-1.9519,-1.9512,-1.9575,-1.9575,-1.9618,-1.9619,-1.9619]},{"header":{"parameterUnit":"m.s-1","parameterCategory":1,"la1":30.2991,"la2":30.254,"lo1":-89.0895,"lo2":-89.0444,"dy":0.0017,"dx":0.0017,"nx":28,"ny":28,"refTime":"2024-04-25T09:00:00:Z","depth":0,"parameterNumber":3,"parameterNumberName":"V-component_of_WINDS"},"data":[0,0,0,0,0,0,0,0,0,0,0,0,0,0,0,0,0,0,0,0,0,0,0,0,0,0,0,0,0,0,0,0,0,0,0,0,0,0,0,0,0,0,0,0,0,0,0,0,0,0,0,0,0,0,0,0,0,0,3.4687,3.4687,0,3.4697,3.4697,3.4697,3.4662,3.4661,3.466,3.4659,3.4668,3.4669,3.467,0,0,0,0,0,0,0,0,0,0,0,0,0,3.4635,3.4637,3.4687,3.4687,3.4687,3.4697,3.4697,3.4697,3.4662,3.4661,3.4659,3.4658,3.4667,3.4669,3.467,0,0,0,0,0,0,0,0,0,0,0,0,0,3.4653,3.4637,3.4687,3.4671,3.4669,3.4697,3.4697,3.4697,3.4662,3.4661,3.4659,3.4658,3.4667,3.4669,3.467,3.4713,0,0,3.4676,3.4677,0,0,0,0,0,0,0,0,3.4652,3.4655,3.4673,3.4672,3.467,3.4677,3.4682,3.4703,3.4663,3.4665,3.4659,3.4657,3.4672,3.4673,3.4678,3.4714,3.4714,3.4676,3.4677,3.4678,3.4679,0,0,0,0,0,0,0,3.4651,3.4654,3.4691,3.4673,3.4672,3.4662,3.4663,3.4686,3.4677,3.4665,3.4662,3.4664,3.4671,3.4677,3.4678,3.4714,3.4676,3.4678,3.4679,3.468,3.4785,3.4787,0,0,0,0,0,0,3.4652,3.4653,3.469,3.4691,3.4657,3.4665,3.4666,3.4676,3.4677,3.4675,3.4665,3.4662,3.4674,3.4676,3.4679,3.4729,3.4678,3.468,3.4681,3.4784,3.4786,3.4788,0,0,0,0,0,0,3.4651,3.4655,3.469,3.4672,3.4675,3.4667,3.4679,3.4677,3.4683,3.4677,3.4675,3.4673,3.4673,3.4676,3.4705,3.4729,3.4681,3.4682,3.4782,3.4784,3.4787,3.483,0,0,0,0,0,0,3.465,3.4655,3.4672,3.4672,3.4676,3.4717,3.4681,3.4679,3.4687,3.4683,3.4684,3.4683,3.4672,3.4703,3.4707,3.473,3.4684,3.4779,3.4783,3.4786,3.4826,3.4834,3.484,0,0,0,0,0,3.4648,3.4683,3.4673,3.4678,3.4697,3.4718,3.4721,3.4708,3.4689,3.4705,3.4701,3.4683,3.4726,3.4706,3.471,3.4735,3.4778,3.4782,3.4786,3.4823,3.4832,3.484,0,0,0,0,0,0,3.4685,3.4683,3.4671,3.4708,3.4714,3.4712,3.4732,3.4718,3.4729,3.4725,3.4708,3.4709,3.4741,3.4741,3.4719,3.4776,3.4748,3.4753,3.4775,3.4784,3.479,3.479,3.4685,0,0,0,0,0,3.4698,3.4716,3.4713,3.4745,3.4749,3.474,3.4749,3.4739,3.4744,3.4746,3.4744,3.475,3.4764,3.4774,3.4787,3.4826,3.4826,3.4845,3.4852,3.4858,3.4862,3.4883,3.4891,3.48,3.48,3.48,0,0,3.4724,3.4725,3.4737,3.4753,3.4756,3.4775,3.4743,3.4763,3.4777,3.4749,3.4777,3.4776,3.478,3.4815,3.483,3.4815,3.4887,3.4863,3.4867,3.4868,3.4888,3.4896,3.4904,3.4803,3.4802,3.4802,0,0,3.4781,3.4784,3.4811,3.4815,3.4821,3.4815,3.4822,3.4823,3.4821,3.4849,3.4828,3.4844,3.4869,3.4873,3.4879,3.4938,3.4921,3.4943,3.4978,3.4998,3.5005,3.5012,3.5033,3.504,3.4947,3.4947,3.4947,0,3.4812,3.484,3.4827,3.485,3.4857,3.4834,3.4861,3.4865,3.4875,3.488,3.4864,3.4896,3.4897,3.4932,3.4947,3.4952,3.4959,3.4942,3.5006,3.5012,3.5017,3.5037,3.5045,3.495,3.4949,3.4949,3.4949,0,3.4879,3.4898,3.492,3.493,3.494,3.4965,3.4955,3.4967,3.4956,3.4952,3.498,3.4981,3.4994,3.5002,3.4991,3.5035,3.5026,3.5008,3.498,3.5029,3.5047,3.5055,3.4953,3.4952,3.4952,3.4951,0,0,3.4959,3.4962,3.497,3.4975,3.4979,3.4994,3.5018,3.5031,3.5041,3.5048,3.5068,3.509,3.5074,3.508,3.507,3.5088,3.5134,3.5067,3.5067,3.5079,3.5183,3.5196,3.5205,3.5123,3.5125,3.5126,3.5182,0,3.5015,3.5056,3.5045,3.5086,3.5104,3.5082,3.5103,3.5108,3.5105,3.5119,3.5115,3.5131,3.5108,3.5112,3.5129,3.5125,3.5155,3.5121,3.5141,3.5142,3.514,3.5215,3.5229,3.5282,3.5189,3.5191,3.5191,0,3.5086,3.5096,3.5139,3.5141,3.5148,3.5167,3.5178,3.5193,3.5197,3.5194,3.5201,3.5188,3.5211,3.5182,3.5214,3.5191,3.5199,3.5198,3.52,3.5201,3.5169,3.5218,3.5299,3.5307,3.5203,3.5202,3.5201,0,3.514,3.5165,3.5194,3.5198,3.5201,3.5215,3.5217,3.522,3.5229,3.5239,3.5244,3.5256,3.5263,3.5273,3.5263,3.5243,3.5296,3.5266,3.5293,3.5293,3.5304,3.5304,3.5388,3.531,3.531,3.531,3.531,0,3.5203,3.523,3.5218,3.5236,3.5266,3.5253,3.5283,3.5282,3.5285,3.5302,3.5284,3.53,3.5286,3.5301,3.5293,3.532,3.5323,3.5321,3.5318,3.5322,3.5322,3.5326,3.5322,3.5312,3.5311,3.5311,3.5311,0,3.5269,3.5262,3.5292,3.5292,3.5293,3.5315,3.5315,3.5331,3.5327,3.5349,3.5353,3.5346,3.5363,3.5354,3.5371,3.5365,3.5401,3.5393,3.5399,3.5397,3.5424,3.5422,3.5513,3.5524,3.544,3.5441,3.5441,0,3.5309,3.533,3.5333,3.5343,3.5346,3.5363,3.5372,3.536,3.537,3.5378,3.5393,3.5408,3.542,3.5447,3.5443,3.5456,3.5449,3.548,3.545,3.5454,3.5449,3.5448,3.545,3.5486,3.5487,3.5488,3.5488,0,3.5383,3.5378,3.5392,3.5405,3.5417,3.5426,3.5434,3.5443,3.5432,3.5444,3.5461,3.547,3.5487,3.5503,3.5514,3.5515,3.55,3.5498,3.5504,3.5509,3.5511,3.551,3.5415,3.5496,3.5495,3.5494,3.5494,3.5494,3.5437,3.5454,3.5459,3.5475,3.548,3.5488,3.5503,3.5501,3.5515,3.5529,3.5521,3.5541,3.5545,3.5559,3.5562,3.5577,3.5565,3.5574,3.5577,3.5579,3.5583,3.5509,3.5579,3.5579,3.5579,3.5579,3.5578,0,3.5509,3.5511,3.5526,3.5538,3.5551,3.5536,3.5544,3.5556,3.5574,3.5579,3.5591,3.5611,3.5625,3.5623,3.5636,3.5649,3.5642,3.5653,3.5651,3.5652,3.5594,3.5586,3.5658,3.5658,3.5658,3.5658,3.5658,3.5658,3.5548,3.5576,3.5573,3.5603,3.5605,3.5625,3.5631,3.5638,3.5642,3.5665,3.5677,3.5676,3.5678,3.5692,3.5704,3.5703,3.5709,3.5722,3.5718,3.5664,3.5656,3.5648,3.5641,3.5723,3.5723,3.5775,3.5775,3.5776]}]]